Location: Bremen
(53.0793°N, 8.8017°E)
Time: 16:59:38
(UTC+01:00)

Transit 2A - Pass Details

Date: 03 December 2022
Orbit: 594 x 962 km, 66.7° (Epoch: 31 January)

Event Time Altitude Azimuth Distance (km) Brightness Sun altitude
Rises 07:15:45 0° 154° (SSE) 2,835 9.8 -8.8°
Reaches altitude 10° 07:19:59 10° 114° (ESE) 1,982 9.9 -8.3°
Maximum altitude 07:20:45 10° 103° (ESE) 1,967 9.7 -8.2°
Drops below altitude 10° 07:21:33 10° 93° (E) 2,008 9.4 -8.1°
Sets 07:25:59 0° 54° (NE) 3,006 9.5 -7.5°
